Hamilton Island, Australia

6:59 PM AEST on November 20, 2017 (GMT +1000)
Hamilton Island

Weather History for YBHM - June, 2013

Change the Weather History Date:

Monday, June 24, 2013

  Actual Average Record
Temperature  
Mean Temperature 66 °F -  
Max Temperature 69 °F - - ()
Min Temperature 63 °F - - ()
Cooling Degree Days 1    
Growing Degree Days 16 (Base 50)    
Moisture  
Dew Point 55 °F    
Average Humidity 67    
Maximum Humidity 83    
Minimum Humidity 47    
Precipitation  
Precipitation 0.00 in - - ()
Sea Level Pressure  
Sea Level Pressure 30.12 in    
Wind  
Wind Speed 13 mph ()    
Max Wind Speed 20 mph    
Max Gust Speed -    
T = Trace of Precipitation, MM = Missing Value Source: Averaged Metar Reports

Daily Weather History Graph

Daily Weather History Graph

Search for Another Location

Airport or City:

Trip Planner

Search our weather history database for the weather conditions in past years. The results will help you decide how hot, cold, wet, or windy it might be!

Date:

Astronomy

Jun. 24, 2013 Rise Set
Actual Time 6:39 AM AEST 5:33 PM AEST
Civil Twilight 6:15 AM AEST 5:57 PM AEST
Nautical Twilight 5:47 AM AEST 6:25 PM AEST
Astronomical Twilight 5:20 AM AEST 6:52 PM AEST
Moon 6:31 PM AEST (6/24) 6:58 AM AEST (6/24)
Length of Visible Light 11h 42m
Length of Day
10h 54m
Waxing Gibbous, 99% of the Moon is Illuminated
Jun 24
Waxing Gibbous
Jun 30
Last Quarter
Jul 8
New
Jul 16
First Quarter
Jul 23
Full

Hourly Weather History & Observations

Time (AEST) Temp. Dew Point Humidity Pressure Visibility Wind Dir Wind Speed Gust Speed Precip Events Conditions
12:00 AM 65 °F 54 °F 59% 30.15 in - South 15.0 mph - -  
12:00 AM 64.4 °F 53.6 °F 68% 30.15 in - South 15.0 mph - N/A   Unknown
12:30 AM 64.4 °F 53.6 °F 68% 30.15 in - SSE 15.0 mph - N/A   Unknown
1:00 AM 64.4 °F 51.8 °F 64% 30.12 in - SSE 15.0 mph - N/A   Unknown
1:30 AM 64.4 °F 53.6 °F 68% 30.12 in - SSE 15.0 mph - N/A   Unknown
2:00 AM 64.4 °F 51.8 °F 64% 30.12 in - SSE 16.1 mph - N/A   Unknown
2:30 AM 64.4 °F 53.6 °F 68% 30.12 in - SSE 13.8 mph - N/A   Unknown
3:00 AM 63 °F 54 °F 66% 30.12 in - South 13.8 mph - -  
3:00 AM 62.6 °F 55.4 °F 77% 30.12 in - South 13.8 mph - N/A   Unknown
3:30 AM 64.4 °F 53.6 °F 68% 30.09 in - SSE 16.1 mph - N/A   Unknown
4:00 AM 64.4 °F 50.0 °F 59% 30.09 in - SSE 17.3 mph - N/A   Unknown
4:30 AM 64.4 °F 48.2 °F 56% 30.09 in - SSE 19.6 mph - N/A   Unknown
5:00 AM 64.4 °F 50.0 °F 59% 30.09 in - SSE 17.3 mph - N/A   Unknown
5:30 AM 64.4 °F 50.0 °F 59% 30.09 in - SSE 16.1 mph - N/A   Unknown
6:00 AM 64 °F 49 °F 48% 30.13 in - SSE 16.1 mph - -  
6:00 AM 64.4 °F 50.0 °F 59% 30.12 in - SSE 16.1 mph - N/A   Unknown
6:30 AM 64.4 °F 50.0 °F 59% 30.12 in - SSE 13.8 mph - N/A   Unknown
7:00 AM 64.4 °F 51.8 °F 64% 30.12 in - SSE 13.8 mph - N/A   Unknown
7:30 AM 64.4 °F 53.6 °F 68% 30.15 in - SSE 15.0 mph - N/A   Unknown
8:00 AM 66.2 °F 53.6 °F 64% 30.15 in - SSE 16.1 mph - N/A   Unknown
8:30 AM 66.2 °F 53.6 °F 64% 30.18 in - SSE 13.8 mph - N/A   Unknown
9:00 AM 67 °F 54 °F 52% 30.19 in - SSE 16.1 mph - -  
9:00 AM 66.2 °F 53.6 °F 64% 30.18 in - SSE 16.1 mph - N/A   Unknown
9:30 AM 66.2 °F 53.6 °F 64% 30.18 in - SSE 17.3 mph - N/A   Unknown
10:00 AM 66.2 °F 53.6 °F 64% 30.18 in - SSE 16.1 mph - N/A   Unknown
10:30 AM 68.0 °F 50.0 °F 52% 30.18 in - SE 16.1 mph - N/A   Unknown
11:00 AM 68.0 °F 51.8 °F 56% 30.18 in - SSE 12.7 mph - N/A   Unknown
11:30 AM 68.0 °F 51.8 °F 56% 30.18 in - SSE 13.8 mph - N/A   Unknown
12:00 PM 69 °F 53 °F 47% 30.17 in - SSE 13.8 mph - -  
12:00 PM 68.0 °F 53.6 °F 60% 30.15 in - SSE 13.8 mph - N/A   Unknown
12:30 PM 68.0 °F 53.6 °F 60% 30.15 in - SSE 17.3 mph - N/A   Unknown
1:00 PM 68.0 °F 53.6 °F 60% 30.12 in - SSE 17.3 mph - N/A   Unknown
1:30 PM 66.2 °F 53.6 °F 64% 30.09 in - SE 17.3 mph - N/A   Unknown
2:00 PM 68.0 °F 57.2 °F 68% 30.06 in - SE 13.8 mph - N/A   Unknown
2:30 PM 68.0 °F 59.0 °F 73% 30.06 in - ESE 10.4 mph - N/A   Unknown
3:00 PM 67 °F 57 °F 62% 30.07 in - SE 10.4 mph - -  
3:00 PM 68.0 °F 57.2 °F 68% 30.06 in - SE 10.4 mph - N/A   Unknown
3:30 PM 66.2 °F 55.4 °F 68% 30.06 in - ESE 10.4 mph - N/A   Unknown
4:00 PM 66.2 °F 57.2 °F 73% 30.06 in - ESE 10.4 mph - N/A   Unknown
4:30 PM 66.2 °F 57.2 °F 73% 30.06 in - ESE 12.7 mph - N/A   Unknown
5:00 PM 66.2 °F 59.0 °F 78% 30.09 in - ESE 13.8 mph - N/A   Unknown
5:30 PM 64.4 °F 57.2 °F 77% 30.09 in - SE 12.7 mph - N/A   Unknown
6:00 PM 65 °F 57 °F 69% 30.10 in - ESE 13.8 mph - -  
6:00 PM 64.4 °F 57.2 °F 77% 30.09 in - ESE 13.8 mph - N/A   Unknown
6:30 PM 64.4 °F 59.0 °F 83% 30.09 in - SE 12.7 mph - N/A   Unknown
7:00 PM 64.4 °F 59.0 °F 83% 30.09 in - SE 12.7 mph - N/A   Unknown
7:30 PM 64.4 °F 57.2 °F 77% 30.12 in - SE 12.7 mph - N/A   Unknown
8:00 PM 64.4 °F 57.2 °F 77% 30.12 in - SE 11.5 mph - N/A   Unknown
8:30 PM 64.4 °F 59.0 °F 83% 30.12 in - SE 11.5 mph - N/A   Unknown
9:00 PM 65 °F 58 °F 71% 30.13 in - SE 11.5 mph - -  
9:00 PM 64.4 °F 57.2 °F 77% 30.12 in - SE 11.5 mph - N/A   Unknown
9:30 PM 66.2 °F 57.2 °F 73% 30.12 in - SE 10.4 mph - N/A   Unknown
10:00 PM 64.4 °F 57.2 °F 77% 30.12 in - SE 9.2 mph - N/A   Unknown
10:30 PM 64.4 °F 59.0 °F 83% 30.12 in - SE 9.2 mph - N/A   Unknown
11:00 PM 64.4 °F 59.0 °F 83% 30.12 in - SSE 9.2 mph - N/A   Unknown
11:30 PM 64.4 °F 59.0 °F 83% 30.12 in - South 8.1 mph - N/A   Unknown